DAL38 KSFO-KLAX

Flight info

Callsign DAL38
Flight time 0h 56m
Altitude 35000
Route WESLA5 SUSEY EBAYE BURGL IRNMN2
Aircraft B738/M-SDE2E3FGHIRWXY/LB1

Departure

Time 2026-04-21 04:21
Airport San Francisco International Airport (KSFO)

Arrival

Time 2026-04-21 05:18
Airport Los Angeles International Airport (KLAX)
Time Latitude Longitude Altitude Speed Heading
2026-04-21 03:53 37.61555 -122.38272 21 ft 0 kts 218°
2026-04-21 04:10 37.61557 -122.38270 22 ft 1 kts 218°
2026-04-21 04:10 37.61571 -122.38258 25 ft 3 kts 200°
2026-04-21 04:10 37.61590 -122.38253 23 ft 3 kts 169°
2026-04-21 04:11 37.61607 -122.38261 23 ft 3 kts 133°
2026-04-21 04:11 37.61614 -122.38273 23 ft 1 kts 118°
2026-04-21 04:11 37.61615 -122.38276 23 ft 0 kts 118°
2026-04-21 04:14 37.61614 -122.38272 21 ft 0 kts 118°
2026-04-21 04:14 37.61613 -122.38270 21 ft 0 kts 118°
2026-04-21 04:14 37.61611 -122.38267 21 ft 1 kts 118°
2026-04-21 04:15 37.61604 -122.38249 23 ft 4 kts 117°
2026-04-21 04:15 37.61583 -122.38199 22 ft 9 kts 117°
2026-04-21 04:15 37.61552 -122.38121 22 ft 11 kts 117°
2026-04-21 04:15 37.61491 -122.38081 21 ft 12 kts 202°
2026-04-21 04:16 37.61411 -122.38096 21 ft 13 kts 140°
2026-04-21 04:16 37.61365 -122.37992 24 ft 14 kts 117°
2026-04-21 04:16 37.61315 -122.37875 21 ft 16 kts 118°
2026-04-21 04:16 37.61263 -122.37749 21 ft 17 kts 117°
2026-04-21 04:17 37.61228 -122.37607 21 ft 17 kts 87°
2026-04-21 04:17 37.61283 -122.37482 22 ft 16 kts 37°
2026-04-21 04:17 37.61382 -122.37415 21 ft 16 kts 27°
2026-04-21 04:17 37.61476 -122.37352 21 ft 15 kts 27°
2026-04-21 04:18 37.61549 -122.37258 21 ft 16 kts 64°
2026-04-21 04:18 37.61547 -122.37102 22 ft 21 kts 115°
2026-04-21 04:18 37.61469 -122.36929 23 ft 24 kts 129°
2026-04-21 04:18 37.61359 -122.36767 23 ft 25 kts 122°
2026-04-21 04:19 37.61277 -122.36569 23 ft 26 kts 118°
2026-04-21 04:19 37.61190 -122.36364 21 ft 26 kts 117°
2026-04-21 04:19 37.61107 -122.36167 21 ft 25 kts 119°
2026-04-21 04:19 37.61049 -122.36013 21 ft 12 kts 94°
2026-04-21 04:20 37.61081 -122.35927 23 ft 11 kts 22°
2026-04-21 04:20 37.61149 -122.35887 21 ft 11 kts
2026-04-21 04:20 37.61210 -122.35931 21 ft 11 kts 300°
2026-04-21 04:20 37.61332 -122.36221 21 ft 79 kts 298°
2026-04-21 04:21 37.61725 -122.37157 30 ft 159 kts 297°
2026-04-21 04:21 37.62289 -122.38522 720 ft 177 kts 296°
2026-04-21 04:21 37.62881 -122.39931 1817 ft 188 kts 294°
2026-04-21 04:21 37.63513 -122.41431 2591 ft 200 kts 292°
2026-04-21 04:22 37.64195 -122.42988 3249 ft 206 kts 294°
2026-04-21 04:22 37.64880 -122.44613 3866 ft 212 kts 293°
2026-04-21 04:22 37.65588 -122.46271 4482 ft 221 kts 294°
2026-04-21 04:22 37.66337 -122.48079 4801 ft 242 kts 294°
2026-04-21 04:23 37.66854 -122.50093 5448 ft 245 kts 266°
2026-04-21 04:23 37.66375 -122.52141 6078 ft 251 kts 232°
2026-04-21 04:23 37.65084 -122.53505 7025 ft 245 kts 203°
2026-04-21 04:23 37.63443 -122.53852 8190 ft 240 kts 178°
2026-04-21 04:24 37.61791 -122.53399 9124 ft 248 kts 166°
2026-04-21 04:24 37.60170 -122.52647 10147 ft 246 kts 164°
2026-04-21 04:24 37.58539 -122.51857 10748 ft 261 kts 164°
2026-04-21 04:24 37.56741 -122.51007 10979 ft 289 kts 164°
2026-04-21 04:25 37.54772 -122.50097 11278 ft 311 kts 164°
2026-04-21 04:25 37.52724 -122.49161 11956 ft 314 kts 164°
2026-04-21 04:25 37.50676 -122.48220 12813 ft 314 kts 164°
2026-04-21 04:25 37.48717 -122.46936 13572 ft 324 kts 150°
2026-04-21 04:26 37.47041 -122.44986 14308 ft 332 kts 142°
2026-04-21 04:26 37.45444 -122.42843 14915 ft 337 kts 141°
2026-04-21 04:26 37.43852 -122.40648 15510 ft 342 kts 140°
2026-04-21 04:26 37.42264 -122.38447 16063 ft 347 kts 140°
2026-04-21 04:27 37.40632 -122.36193 16668 ft 350 kts 140°
2026-04-21 04:27 37.38989 -122.33932 17266 ft 352 kts 140°
2026-04-21 04:27 37.37318 -122.31650 17870 ft 355 kts 140°
2026-04-21 04:27 37.35629 -122.29348 18396 ft 360 kts 140°
2026-04-21 04:28 37.33923 -122.27027 18850 ft 363 kts 141°
2026-04-21 04:28 37.32192 -122.24685 19291 ft 367 kts 141°
2026-04-21 04:28 37.30441 -122.22328 19754 ft 371 kts 141°
2026-04-21 04:28 37.28685 -122.19925 20173 ft 376 kts 141°
2026-04-21 04:29 37.26884 -122.17515 20507 ft 380 kts 143°
2026-04-21 04:29 37.25021 -122.15116 20912 ft 385 kts 141°
2026-04-21 04:29 37.23194 -122.12633 21424 ft 388 kts 141°
2026-04-21 04:29 37.21362 -122.10139 21836 ft 392 kts 141°
2026-04-21 04:30 37.19527 -122.07641 22212 ft 396 kts 141°
2026-04-21 04:30 37.17655 -122.05091 22602 ft 399 kts 141°
2026-04-21 04:30 37.15757 -122.02547 23002 ft 400 kts 142°
2026-04-21 04:30 37.13839 -121.99987 23336 ft 406 kts 141°
2026-04-21 04:31 37.11905 -121.97380 23646 ft 410 kts 141°
2026-04-21 04:31 37.10004 -121.94694 24005 ft 413 kts 140°
2026-04-21 04:31 37.08073 -121.92026 24355 ft 414 kts 140°
2026-04-21 04:31 37.06151 -121.89327 24656 ft 416 kts 141°
2026-04-21 04:32 37.04165 -121.86690 25005 ft 417 kts 142°
2026-04-21 04:32 37.02142 -121.84088 25310 ft 417 kts 143°
2026-04-21 04:32 37.00097 -121.81479 25610 ft 421 kts 142°
2026-04-21 04:32 36.98066 -121.78803 25746 ft 427 kts 142°
2026-04-21 04:33 36.96712 -121.77006 25882 ft 430 kts 141°
2026-04-21 04:33 36.94664 -121.74271 26203 ft 431 kts 141°
2026-04-21 04:33 36.92620 -121.71532 26533 ft 432 kts 141°
2026-04-21 04:33 36.89895 -121.67887 26895 ft 434 kts 141°
2026-04-21 04:34 36.88494 -121.66018 27055 ft 436 kts 142°
2026-04-21 04:34 36.85736 -121.62346 27398 ft 439 kts 142°
2026-04-21 04:34 36.84353 -121.60508 27527 ft 440 kts 142°
2026-04-21 04:34 36.82233 -121.57715 27652 ft 444 kts 142°
2026-04-21 04:35 36.80086 -121.54915 27895 ft 446 kts 142°
2026-04-21 04:35 36.77943 -121.52122 28126 ft 446 kts 142°
2026-04-21 04:35 36.75801 -121.49304 28346 ft 450 kts 141°
2026-04-21 04:35 36.73670 -121.46431 28590 ft 452 kts 141°
2026-04-21 04:36 36.71524 -121.43554 28825 ft 453 kts 141°
2026-04-21 04:36 36.69432 -121.40598 29238 ft 454 kts 139°
2026-04-21 04:36 36.67321 -121.37689 29518 ft 452 kts 142°
2026-04-21 04:36 36.65130 -121.34879 29753 ft 453 kts 142°
2026-04-21 04:37 36.62925 -121.32071 30066 ft 453 kts 143°
2026-04-21 04:37 36.60736 -121.29256 30394 ft 452 kts 142°
2026-04-21 04:37 36.58562 -121.26428 30731 ft 450 kts 142°
2026-04-21 04:37 36.56433 -121.23640 31043 ft 449 kts 142°
2026-04-21 04:38 36.54290 -121.20825 31374 ft 448 kts 142°
2026-04-21 04:38 36.52145 -121.18006 31481 ft 451 kts 141°
2026-04-21 04:38 36.49957 -121.15173 31604 ft 453 kts 142°
2026-04-21 04:38 36.47810 -121.12297 31960 ft 454 kts 140°
2026-04-21 04:39 36.45682 -121.09434 32353 ft 448 kts 142°
2026-04-21 04:39 36.43512 -121.06663 32620 ft 448 kts 142°
2026-04-21 04:39 36.41364 -121.03838 32828 ft 452 kts 140°
2026-04-21 04:39 36.39223 -121.00989 33035 ft 449 kts 141°
2026-04-21 04:40 36.37142 -120.98072 33350 ft 452 kts 138°
2026-04-21 04:40 36.35143 -120.95062 33670 ft 452 kts 138°
2026-04-21 04:40 36.33149 -120.92048 33942 ft 452 kts 138°
2026-04-21 04:40 36.31140 -120.89054 34194 ft 451 kts 139°
2026-04-21 04:41 36.29111 -120.86081 34472 ft 450 kts 139°
2026-04-21 04:41 36.27071 -120.83156 34691 ft 451 kts 138°
2026-04-21 04:41 36.25225 -120.79942 34930 ft 455 kts 135°
2026-04-21 04:42 36.21042 -120.74169 35001 ft 450 kts 141°
2026-04-21 04:42 36.16801 -120.68441 34993 ft 451 kts 140°
2026-04-21 04:43 36.12692 -120.62642 35000 ft 450 kts 139°
2026-04-21 04:43 36.08610 -120.56788 34964 ft 448 kts 138°
2026-04-21 04:44 36.04482 -120.51014 35004 ft 452 kts 138°
2026-04-21 04:44 36.00407 -120.45019 34993 ft 456 kts 137°
2026-04-21 04:45 35.96201 -120.39217 34994 ft 452 kts 141°
2026-04-21 04:45 35.92009 -120.33356 34996 ft 457 kts 138°
2026-04-21 04:46 35.87821 -120.27463 34984 ft 454 kts 142°
2026-04-21 04:46 35.82876 -120.22907 35011 ft 439 kts 156°
2026-04-21 04:47 35.77649 -120.19082 35011 ft 439 kts 156°
2026-04-21 04:47 35.72415 -120.15190 34992 ft 438 kts 155°
2026-04-21 04:48 35.67213 -120.11261 34966 ft 439 kts 155°
2026-04-21 04:48 35.62013 -120.07332 34993 ft 438 kts 155°
2026-04-21 04:49 35.56798 -120.03404 34974 ft 439 kts 155°
2026-04-21 04:49 35.51576 -119.99466 34994 ft 441 kts 155°
2026-04-21 04:50 35.46333 -119.95519 34997 ft 443 kts 155°
2026-04-21 04:50 35.41064 -119.91558 34969 ft 445 kts 154°
2026-04-21 04:51 35.35813 -119.87617 34982 ft 446 kts 154°
2026-04-21 04:51 35.30503 -119.83636 34987 ft 447 kts 155°
2026-04-21 04:52 35.25310 -119.79380 34964 ft 451 kts 148°
2026-04-21 04:52 35.20362 -119.74616 34961 ft 453 kts 147°
2026-04-21 04:53 35.15418 -119.69864 34945 ft 448 kts 148°
2026-04-21 04:53 35.13001 -119.67578 34946 ft 431 kts 148°
2026-04-21 04:53 35.10691 -119.65410 34945 ft 417 kts 148°
2026-04-21 04:53 35.08427 -119.63298 34947 ft 403 kts 149°
2026-04-21 04:54 35.06233 -119.61258 34920 ft 391 kts 149°
2026-04-21 04:54 35.04083 -119.59264 34710 ft 383 kts 149°
2026-04-21 04:54 35.01960 -119.57299 34354 ft 382 kts 149°
2026-04-21 04:54 34.99842 -119.55341 33882 ft 383 kts 149°
2026-04-21 04:55 34.97695 -119.53356 33051 ft 393 kts 149°
2026-04-21 04:55 34.95476 -119.51305 31922 ft 409 kts 148°
2026-04-21 04:55 34.93181 -119.49184 30699 ft 428 kts 148°
2026-04-21 04:55 34.90762 -119.46944 29309 ft 446 kts 148°
2026-04-21 04:56 34.88252 -119.44668 28280 ft 451 kts 149°
2026-04-21 04:56 34.85735 -119.42421 27645 ft 446 kts 148°
2026-04-21 04:56 34.83240 -119.40202 27062 ft 442 kts 148°
2026-04-21 04:56 34.80774 -119.38004 26514 ft 437 kts 148°
2026-04-21 04:57 34.78336 -119.35828 25968 ft 433 kts 148°
2026-04-21 04:57 34.75929 -119.33678 25456 ft 428 kts 148°
2026-04-21 04:57 34.73524 -119.31542 24916 ft 423 kts 149°
2026-04-21 04:57 34.71141 -119.29458 24422 ft 419 kts 149°
2026-04-21 04:58 34.68797 -119.27417 24024 ft 411 kts 149°
2026-04-21 04:58 34.66493 -119.25410 23397 ft 410 kts 149°
2026-04-21 04:58 34.64179 -119.23395 22792 ft 405 kts 149°
2026-04-21 04:58 34.61916 -119.21435 22254 ft 395 kts 149°
2026-04-21 04:59 34.59698 -119.19536 21796 ft 385 kts 149°
2026-04-21 04:59 34.57531 -119.17672 21308 ft 377 kts 149°
2026-04-21 04:59 34.55417 -119.15839 20848 ft 369 kts 149°
2026-04-21 04:59 34.53362 -119.14019 20396 ft 362 kts 149°
2026-04-21 05:00 34.51346 -119.12225 19955 ft 357 kts 149°
2026-04-21 05:00 34.49359 -119.10455 19512 ft 354 kts 149°
2026-04-21 05:00 34.45421 -119.06973 18659 ft 347 kts 149°
2026-04-21 05:01 34.43476 -119.05261 18213 ft 345 kts 149°
2026-04-21 05:01 34.41528 -119.03571 17707 ft 343 kts 149°
2026-04-21 05:01 34.39595 -119.01903 17215 ft 340 kts 149°
2026-04-21 05:01 34.37707 -119.00271 16779 ft 336 kts 149°
2026-04-21 05:02 34.35792 -118.98614 16347 ft 332 kts 149°
2026-04-21 05:02 34.33947 -118.97014 15953 ft 331 kts 149°
2026-04-21 05:02 34.32091 -118.95347 15524 ft 335 kts 148°
2026-04-21 05:02 34.30223 -118.93641 15101 ft 337 kts 147°
2026-04-21 05:03 34.28362 -118.91943 14690 ft 335 kts 148°
2026-04-21 05:03 34.26503 -118.90253 14278 ft 333 kts 148°
2026-04-21 05:03 34.24657 -118.88572 13852 ft 331 kts 147°
2026-04-21 05:03 34.22817 -118.86882 13369 ft 330 kts 147°
2026-04-21 05:04 34.21000 -118.85209 12949 ft 326 kts 147°
2026-04-21 05:04 34.19216 -118.83567 12538 ft 320 kts 147°
2026-04-21 05:04 34.17463 -118.81957 12135 ft 314 kts 147°
2026-04-21 05:04 34.15763 -118.80342 11792 ft 308 kts 144°
2026-04-21 05:05 34.14176 -118.78638 11487 ft 302 kts 142°
2026-04-21 05:05 34.12644 -118.76937 11177 ft 297 kts 142°
2026-04-21 05:05 34.11135 -118.75264 10875 ft 291 kts 142°
2026-04-21 05:05 34.09654 -118.73637 10595 ft 285 kts 142°
2026-04-21 05:06 34.08194 -118.72042 10311 ft 280 kts 142°
2026-04-21 05:06 34.06762 -118.70486 10047 ft 274 kts 142°
2026-04-21 05:06 34.05374 -118.68984 9775 ft 271 kts 142°
2026-04-21 05:06 34.03982 -118.67460 9467 ft 269 kts 139°
2026-04-21 05:07 34.02992 -118.65546 9170 ft 273 kts 114°
2026-04-21 05:07 34.02589 -118.63296 8919 ft 276 kts 101°
2026-04-21 05:07 34.02390 -118.60983 8644 ft 278 kts 99°
2026-04-21 05:07 34.02202 -118.58658 8364 ft 279 kts 100°
2026-04-21 05:08 34.02001 -118.56336 8053 ft 278 kts 100°
2026-04-21 05:08 34.01797 -118.54036 7671 ft 273 kts 100°
2026-04-21 05:08 34.01589 -118.51776 7304 ft 270 kts 100°
2026-04-21 05:08 34.01380 -118.49544 6947 ft 266 kts 100°
2026-04-21 05:09 34.01174 -118.47360 6588 ft 264 kts 100°
2026-04-21 05:09 34.01054 -118.45165 6200 ft 263 kts 87°
2026-04-21 05:09 34.01420 -118.43004 5837 ft 262 kts 78°
2026-04-21 05:09 34.01825 -118.40878 5465 ft 259 kts 79°
2026-04-21 05:10 34.02204 -118.38764 5088 ft 257 kts 79°
2026-04-21 05:10 34.02571 -118.36663 4714 ft 255 kts 79°
2026-04-21 05:10 34.02886 -118.34576 4339 ft 252 kts 84°
2026-04-21 05:10 34.03096 -118.32492 3956 ft 249 kts 84°
2026-04-21 05:11 34.03294 -118.30427 3595 ft 247 kts 84°
2026-04-21 05:11 34.03504 -118.28374 3223 ft 245 kts 82°
2026-04-21 05:11 34.03726 -118.26343 2839 ft 244 kts 82°
2026-04-21 05:11 34.03945 -118.24332 2604 ft 236 kts 82°
2026-04-21 05:12 34.04152 -118.22425 2574 ft 223 kts 83°
2026-04-21 05:12 34.04290 -118.20592 2555 ft 218 kts 96°
2026-04-21 05:12 34.03654 -118.19000 2598 ft 215 kts 139°
2026-04-21 05:12 34.02311 -118.18290 2602 ft 218 kts 171°
2026-04-21 05:13 34.00794 -118.18050 2586 ft 220 kts 180°
2026-04-21 05:13 33.99402 -118.18609 2572 ft 207 kts 221°
2026-04-21 05:13 33.98507 -118.19876 2576 ft 192 kts 231°
2026-04-21 05:13 33.97678 -118.21106 2594 ft 188 kts 231°
2026-04-21 05:14 33.96975 -118.22407 2561 ft 185 kts 259°
2026-04-21 05:14 33.96895 -118.23954 2595 ft 189 kts 267°
2026-04-21 05:14 33.96740 -118.25527 2545 ft 191 kts 258°
2026-04-21 05:14 33.96517 -118.27080 2279 ft 182 kts 264°
2026-04-21 05:15 33.96401 -118.28525 2020 ft 169 kts 264°
2026-04-21 05:15 33.96290 -118.29878 1790 ft 153 kts 263°
2026-04-21 05:15 33.96150 -118.31098 1563 ft 142 kts 261°
2026-04-21 05:15 33.96012 -118.32278 1376 ft 143 kts 263°
2026-04-21 05:16 33.95894 -118.33470 1251 ft 146 kts 262°
2026-04-21 05:16 33.95771 -118.34698 1032 ft 148 kts 263°
2026-04-21 05:16 33.95652 -118.35917 835 ft 144 kts 262°
2026-04-21 05:16 33.95526 -118.37091 683 ft 138 kts 264°
2026-04-21 05:17 33.95411 -118.38218 478 ft 136 kts 264°
2026-04-21 05:17 33.95296 -118.39345 281 ft 132 kts 263°
2026-04-21 05:17 33.95185 -118.40428 123 ft 131 kts 264°
2026-04-21 05:17 33.95090 -118.41387 105 ft 88 kts 262°
2026-04-21 05:18 33.95040 -118.41873 107 ft 41 kts 263°
2026-04-21 05:18 33.94998 -118.42265 107 ft 50 kts 263°
2026-04-21 05:18 33.94921 -118.42569 105 ft 23 kts 239°
2026-04-21 05:18 33.94841 -118.42692 103 ft 14 kts 223°
2026-04-21 05:19 33.94767 -118.42756 106 ft 13 kts 204°
2026-04-21 05:19 33.94670 -118.42779 103 ft 18 kts 173°
2026-04-21 05:19 33.94641 -118.42645 99 ft 20 kts 83°
2026-04-21 05:19 33.94659 -118.42468 100 ft 22 kts 83°
2026-04-21 05:20 33.94678 -118.42282 98 ft 22 kts 82°
2026-04-21 05:20 33.94697 -118.42101 97 ft 21 kts 83°
2026-04-21 05:20 33.94713 -118.41924 97 ft 21 kts 83°
2026-04-21 05:20 33.94725 -118.41811 97 ft 20 kts 83°
2026-04-21 05:21 33.94741 -118.41644 97 ft 20 kts 83°
2026-04-21 05:21 33.94758 -118.41482 98 ft 19 kts 83°
2026-04-21 05:21 33.94793 -118.41278 99 ft 18 kts 83°
2026-04-21 05:21 33.94803 -118.41176 99 ft 18 kts 83°
2026-04-21 05:22 33.94818 -118.41030 98 ft 17 kts 83°
2026-04-21 05:22 33.94820 -118.40902 99 ft 14 kts 122°
2026-04-21 05:22 33.94726 -118.40912 96 ft 14 kts 184°
2026-04-21 05:22 33.94642 -118.40901 94 ft 11 kts 173°
2026-04-21 05:23 33.94583 -118.40879 96 ft 8 kts 153°
2026-04-21 05:23 33.94540 -118.40869 94 ft 1 kts 162°
2026-04-21 05:23 33.94536 -118.40861 94 ft 2 kts 113°
2026-04-21 05:23 33.94533 -118.40832 94 ft 3 kts 93°
2026-04-21 05:24 33.94532 -118.40809 94 ft 2 kts 93°
2026-04-21 05:24 33.94531 -118.40794 94 ft 1 kts 93°
2026-04-21 05:24 33.94531 -118.40788 94 ft 1 kts 93°
2026-04-21 05:24 33.94531 -118.40784 94 ft 0 kts 93°